Погода в Салацгриве

Латвия     57°45′50″N   24°21′58″E
темп.,
°C
ветер,
м/с
пор.,
м/с
влажн.,
%
обл.,
%
осадки,
мм/ч
давл.,
гПа
погр.,
м
5 марта, пт
пт523:00−2сз7117942 0.0 1011739
02:00−2ссз8118453 0.1 1012698
05:00−3ссз7116632 0.0 1013905
08:00−3ссз586316 0.0 1014538
11:00−2сз24610 0.0 1015513
14:00−1зюз136934 0.1 1016299
17:00−2ссз4772100 0.4 1017598
20:00−3с6106265 0.4 1019609
6 марта, сб
сб623:00−3ссз46720 0.0 1021367
02:00−4ссз35780 0.0 1023236
05:00−3сз36770 0.0 1022304
08:00−2зюз58720 0.0 1021384
11:00−1зюз8126928 0.0 1019646
14:00+1зюз8147064 0.0 1016599
17:00+1зюз101868100 0.0 1012832
20:000зюз111980100 0.0 1008838
7 марта, вс
вс723:000з121991100 0.1 1004705
02:00−1сз101477100 1.4 10041195
05:00−3сз9145550 0.0 10051653
08:00−2зсз9146844 0.1 10051460
11:00−1зсз11155986 0.4 10031461
14:00−1з13176592 0.8 10011496
17:00−2сз15186569 0.4 10011401
20:00−4ссз11157665 0.4 10041225
8 марта, пн
пн823:00−4ссз797597 0.1 10071008
02:00−5с688184 0.1 1009685
05:00−5с698130 0.0 1010781
08:00−7с797663 0.1 10131001
11:00−6с7974100 0.0 1015890
14:00−5с796396 0.0 10171112
17:00−5с79570 0.0 10191140
20:00−6ссв58610 0.0 1021811
9 марта, вт
вт923:00−6с36640 0.0 1023414
02:00−6ссз23640 0.0 1024274
05:00−5сз237020 0.0 1024204
08:00−4зсз466620 0.0 1025286
11:00−3зюз57657 0.0 1025597
14:00−2зюз68653 0.0 1025727
17:00−1юз59663 0.0 1024523
20:00−1зюз811722 0.0 1025571